Weather History for Tahlequah, OK

Change the Weather History Date:

Tuesday, October 25, 2011

  Actual Average (KMKO) Record (KMKO)
Temperature  
Mean Temperature 66 °F -  
Max Temperature 80 °F 69 °F 84 °F (2010)
Min Temperature 51 °F 47 °F 28 °F (2005)
Growing Degree Days 16 (Base 50)    
Moisture  
Dew Point 56 °F    
Average Humidity 72    
Maximum Humidity 100    
Minimum Humidity 47    
Precipitation  
Precipitation 0.00 in - - ()
Sea Level Pressure  
Sea Level Pressure 30.01 in    
Wind  
Wind Speed 8 mph (South)    
Max Wind Speed 21 mph    
Max Gust Speed 32 mph    
Visibility 10 miles    
Events      
Averages and records for this station are not official NWS values.
T = Trace of Precipitation, MM = Missing Value Source: NWS Daily Summary

Daily Weather History Graph

Daily Weather History Graph

Search for Another Location

Airport:

Trip Planner

Search our weather history database for the weather conditions in past years. The results will help you decide how hot, cold, wet, or windy it might be!

Date:

Astronomy

Oct. 25, 2011 Rise Set
Actual Time 7:35 AM CDT 6:32 PM CDT
Civil Twilight 7:09 AM CDT 6:58 PM CDT
Nautical Twilight 6:39 AM CDT 7:28 PM CDT
Astronomical Twilight 6:09 AM CDT 7:57 PM CDT
Moon 6:10 AM CDT (10/25) 5:34 PM CDT (10/25)
Length of Visible Light 11h 48m
Length of Day
10h 56m
Waning Crescent, 2% of the Moon is Illuminated
Oct 25
Waning Crescent
Oct 26
New
Nov 2
First Quarter
Nov 10
Full
Nov 18
Last Quarter

Hourly Weather History & Observations

Time (CDT) Temp. Heat Index Dew Point Humidity Pressure Visibility Wind Dir Wind Speed Gust Speed Precip Events Conditions
12:15 AM 51.8 °F - 51.8 °F 100% 30.13 in 10.0 mi Calm Calm - N/A   Clear
12:35 AM 51.8 °F - 51.8 °F 100% 30.12 in 10.0 mi Calm Calm - N/A   Clear
12:55 AM 51.8 °F - 51.8 °F 100% 30.11 in 10.0 mi SSE 4.6 mph - N/A   Clear
1:15 AM 55.4 °F - 53.6 °F 94% 30.11 in 10.0 mi SSE 3.5 mph - N/A   Clear
1:55 AM 57.2 °F - 53.6 °F 88% 30.11 in 10.0 mi South 8.1 mph - N/A   Clear
2:15 AM 59.0 °F - 53.6 °F 82% 30.10 in 10.0 mi SSE 6.9 mph - N/A   Clear
2:35 AM 59.0 °F - 53.6 °F 82% 30.10 in 10.0 mi South 5.8 mph - N/A   Clear
2:55 AM 57.2 °F - 53.6 °F 88% 30.10 in 10.0 mi South 4.6 mph - N/A   Clear
3:15 AM 55.4 °F - 53.6 °F 94% 30.10 in 10.0 mi South 5.8 mph - N/A   Clear
3:35 AM 55.4 °F - 53.6 °F 94% 30.09 in 10.0 mi SSE 5.8 mph - N/A   Clear
3:55 AM 55.4 °F - 53.6 °F 94% 30.08 in 10.0 mi SE 4.6 mph - N/A   Clear
4:15 AM 53.6 °F - 51.8 °F 94% 30.07 in 10.0 mi SE 5.8 mph - N/A   Clear
4:35 AM 53.6 °F - 51.8 °F 94% 30.06 in 10.0 mi SE 4.6 mph - N/A   Clear
4:55 AM 53.6 °F - 51.8 °F 94% 30.07 in 10.0 mi SE 3.5 mph - N/A   Clear
5:15 AM 53.6 °F - 51.8 °F 94% 30.07 in 10.0 mi Calm Calm - N/A   Clear
5:35 AM 53.6 °F - 53.6 °F 100% 30.06 in 10.0 mi SSE 4.6 mph - N/A   Clear
5:55 AM 55.4 °F - 53.6 °F 94% 30.06 in 10.0 mi SE 5.8 mph - N/A   Clear
6:15 AM 55.4 °F - 53.6 °F 94% 30.06 in 10.0 mi SSE 6.9 mph - N/A   Clear
6:35 AM 57.2 °F - 53.6 °F 88% 30.06 in 10.0 mi SSE 3.5 mph - N/A   Clear
6:55 AM 59.0 °F - 51.8 °F 77% 30.06 in 10.0 mi SSE 4.6 mph - N/A   Clear
7:15 AM 59.0 °F - 51.8 °F 77% 30.06 in 10.0 mi SSE 8.1 mph - N/A   Clear
7:35 AM 59.0 °F - 51.8 °F 77% 30.06 in 10.0 mi South 10.4 mph - N/A   Clear
7:55 AM 59.0 °F - 51.8 °F 77% 30.06 in 10.0 mi SSE 4.6 mph - N/A   Clear
8:15 AM 59.0 °F - 53.6 °F 82% 30.05 in 10.0 mi SSE 5.8 mph - N/A   Clear
8:35 AM 60.8 °F - 53.6 °F 77% 30.05 in 10.0 mi SSE 8.1 mph - N/A   Clear
8:55 AM 62.6 °F - 55.4 °F 77% 30.05 in 10.0 mi SSE 6.9 mph - N/A   Clear
9:15 AM 64.4 °F - 57.2 °F 77% 30.05 in 10.0 mi South 12.7 mph 17.3 mph N/A   Clear
9:35 AM 68.0 °F - 59.0 °F 73% 30.04 in 10.0 mi SSE 10.4 mph 19.6 mph N/A   Clear
9:55 AM 68.0 °F - 59.0 °F 73% 30.04 in 10.0 mi South 11.5 mph 19.6 mph N/A   Clear
10:15 AM 69.8 °F - 59.0 °F 68% 30.04 in 10.0 mi South 15.0 mph 20.7 mph N/A   Clear
10:35 AM 69.8 °F - 59.0 °F 68% 30.04 in 10.0 mi South 16.1 mph 20.7 mph N/A   Clear
10:55 AM 69.8 °F - 59.0 °F 68% 30.03 in 10.0 mi South 12.7 mph 20.7 mph N/A   Clear
11:15 AM 71.6 °F - 60.8 °F 69% 30.02 in 10.0 mi South 11.5 mph 18.4 mph N/A   Clear
11:35 AM 71.6 °F - 60.8 °F 69% 30.02 in 10.0 mi South 17.3 mph 24.2 mph N/A   Clear
11:55 AM 73.4 °F - 60.8 °F 65% 30.02 in 10.0 mi South 16.1 mph 24.2 mph N/A   Clear
12:15 PM 73.4 °F - 60.8 °F 65% 30.00 in 10.0 mi South 16.1 mph 23.0 mph N/A   Clear
12:35 PM 75.2 °F - 60.8 °F 61% 29.99 in 10.0 mi South 19.6 mph 27.6 mph N/A   Clear
12:55 PM 77.0 °F - 60.8 °F 57% 29.98 in 10.0 mi South 19.6 mph 26.5 mph N/A   Clear
1:15 PM 78.8 °F - 59.0 °F 51% 29.96 in 10.0 mi South 18.4 mph 24.2 mph N/A   Clear
1:35 PM 78.8 °F - 59.0 °F 51% 29.95 in 10.0 mi South 20.7 mph 27.6 mph N/A   Clear
1:55 PM 78.8 °F - 59.0 °F 51% 29.93 in 10.0 mi South 18.4 mph 26.5 mph N/A   Clear
2:15 PM 80.6 °F 81.1 °F 59.0 °F 48% 29.92 in 10.0 mi SSW 20.7 mph 32.2 mph N/A   Clear
2:35 PM 80.6 °F 81.1 °F 59.0 °F 48% 29.91 in 10.0 mi South 18.4 mph 25.3 mph N/A   Clear
2:55 PM 78.8 °F - 57.2 °F 47% 29.91 in 10.0 mi South 17.3 mph 27.6 mph N/A   Clear
3:15 PM 78.8 °F - 59.0 °F 51% 29.90 in 10.0 mi South 18.4 mph 26.5 mph N/A   Clear
3:35 PM 78.8 °F - 59.0 °F 51% 29.90 in 10.0 mi SSW 17.3 mph 28.8 mph N/A   Clear
3:55 PM 78.8 °F - 59.0 °F 51% 29.90 in 10.0 mi South 13.8 mph 23.0 mph N/A   Clear
4:15 PM 80.6 °F 81.1 °F 59.0 °F 48% 29.89 in 10.0 mi South 12.7 mph 25.3 mph N/A   Clear
4:35 PM 80.6 °F 81.1 °F 59.0 °F 48% 29.89 in 10.0 mi South 16.1 mph 26.5 mph N/A   Clear
4:55 PM 78.8 °F - 59.0 °F 51% 29.89 in 10.0 mi SSW 15.0 mph 23.0 mph N/A   Clear
5:15 PM 77.0 °F - 59.0 °F 54% 29.89 in 10.0 mi South 12.7 mph 21.9 mph N/A   Clear
5:35 PM 77.0 °F - 59.0 °F 54% 29.88 in 10.0 mi South 10.4 mph 21.9 mph N/A   Clear
5:55 PM 77.0 °F - 59.0 °F 54% 29.89 in 10.0 mi South 9.2 mph 17.3 mph N/A   Clear
6:15 PM 75.2 °F - 59.0 °F 57% 29.88 in 10.0 mi South 10.4 mph - N/A   Clear
6:35 PM 73.4 °F - 59.0 °F 61% 29.89 in 10.0 mi South 10.4 mph 17.3 mph N/A   Clear
6:55 PM 73.4 °F - 59.0 °F 61% 29.90 in 10.0 mi South 8.1 mph - N/A   Clear
7:15 PM 73.4 °F - 59.0 °F 61% 29.90 in 10.0 mi South 6.9 mph - N/A   Clear
7:35 PM 71.6 °F - 59.0 °F 64% 29.91 in 10.0 mi South 4.6 mph - N/A   Clear
7:55 PM 71.6 °F - 59.0 °F 64% 29.91 in 10.0 mi South 5.8 mph - N/A   Clear
8:15 PM 69.8 °F - 59.0 °F 68% 29.92 in 10.0 mi South 8.1 mph - N/A   Clear
8:35 PM 69.8 °F - 59.0 °F 68% 29.92 in 10.0 mi South 5.8 mph - N/A   Clear
8:55 PM 69.8 °F - 59.0 °F 68% 29.93 in 10.0 mi South 6.9 mph - N/A   Clear
9:15 PM 69.8 °F - 59.0 °F 68% 29.93 in 10.0 mi South 9.2 mph - N/A   Clear
9:35 PM 69.8 °F - 59.0 °F 68% 29.93 in 10.0 mi South 8.1 mph - N/A   Clear
9:55 PM 69.8 °F - 59.0 °F 68% 29.94 in 10.0 mi South 6.9 mph - N/A   Clear
10:15 PM 68.0 °F - 59.0 °F 73% 29.94 in 10.0 mi South 5.8 mph - N/A   Clear
10:35 PM 68.0 °F - 59.0 °F 73% 29.94 in 10.0 mi South 5.8 mph - N/A   Clear
10:55 PM 68.0 °F - 59.0 °F 73% 29.93 in 10.0 mi South 4.6 mph - N/A   Clear
11:15 PM 66.2 °F - 59.0 °F 78% 29.93 in 10.0 mi SSE 4.6 mph - N/A   Clear
11:55 PM 64.4 °F - 59.0 °F 83% 29.92 in 10.0 mi SSE 4.6 mph - N/A   Clear